Probability
1 0 0 0 0 0 0 0 0 0 0 0 0 1 3 5 6 7 7 6 5 4 3 1 1 3 4 3 2 1 1 1 0 0 0 0 1 1 1 0 0 0 0 0
1 0 0 0 0 0 0 0 0 0 0 0 0 1 4 5 5 6 6 4 3 3 2 2 2 4 5 3 1 0 0 0 0 0 0 0 0 0 0 0 0 0 0 0
1 0 0 0 0 0 0 0 0 0 1 1 0 1 3 4 3 4 3 2 1 1 1 1 3 5 4 3 1 0 0 0 0 0 0 0 0 0 0 0 0 0 0 0
0 0 0 0 0 0 0 0 0 1 2 3 1 1 2 3 2 1 1 0 0 0 0 1 3 4 3 2 1 0 0 0 0 0 0 0 0 0 0 0 0 0 1 1
0 0 0 0 0 0 0 0 0 1 2 3 2 1 2 2 2 1 0 0 0 0 0 1 2 3 2 1 1 0 0 0 0 0 1 1 0 0 0 0 0 1 2 2
0 0 0 0 0 0 0 0 0 1 1 2 1 1 1 2 3 2 1 0 0 0 0 0 1 1 1 0 0 0 0 1 1 1 2 2 1 1 1 2 1 1 3 3
0 0 0 1 1 1 0 0 0 0 1 2 2 2 1 2 2 2 1 1 0 0 0 0 0 0 0 0 0 0 1 2 2 3 3 3 3 2 3 3 2 2 3 3
0 0 0 1 1 1 0 0 0 0 1 2 3 3 2 1 1 1 1 0 0 0 0 0 0 0 0 0 0 1 2 3 3 3 3 3 3 3 3 3 3 2 2 3
1 1 1 0 0 0 0 0 0 0 0 0 1 2 2 1 0 0 0 0 0 0 0 0 0 0 0 1 1 1 2 2 2 3 3 3 3 3 3 3 3 2 2 2
2 2 1 0 0 0 1 1 0 0 0 0 0 0 0 0 0 0 0 0 1 1 2 1 1 1 1 2 2 3 2 1 1 2 3 3 3 3 3 3 3 3 2 2
1 1 1 0 0 0 1 1 0 0 0 0 0 0 0 0 0 0 0 0 1 2 2 2 2 1 2 3 3 3 2 1 0 1 1 2 3 3 3 2 2 2 2 2
0 0 0 0 0 0 1 1 0 0 0 0 0 0 0 0 0 0 0 0 1 1 1 1 1 1 2 2 3 2 1 0 0 0 0 1 2 2 1 1 1 1 1 2
0 0 0 0 0 0 0 0 0 0 0 0 0 0 0 0 0 0 0 0 0 0 0 0 0 0 1 1 2 1 0 0 0 0 0 0 1 1 1 0 0 0 0 1
0 0 0 0 0 0 0 0 0 0 0 0 0 0 0 0 0 0 0 0 0 0 0 0 0 0 0 0 0 0 0 0 0 0 0 0 0 0 0 0 0 0 0 0
0 0 0 0 0 0 0 0 0 0 0 0 0 0 0 0 0 0 0 0 0 0 0 0 0 0 0 0 0 0 0 0 0 0 0 0 0 0 0 0 0 0 0 0
0 0 0 0 0 0 0 0 0 0 0 0 0 0 0 0 0 0 0 0 0 0 0 0 0 0 0 0 0 0 0 0 0 0 0 0 0 0 0 0 0 0 0 0
0 0 0 0 0 0 0 0 0 0 0 0 0 0 0 0 0 0 0 0 0 0 0 0 0 0 0 0 0 0 0 0 0 0 0 0 0 0 0 0 0 0 0 0
0 0 0 0 0 0 0 0 0 0 0 0 0 0 0 0 0 0 0 0 0 0 0 0 0 0 0 0 0 0 0 0 0 0 0 0 0 0 0 0 0 0 0 0
0 0 0 0 0 0 0 0 0 0 0 0 0 0 0 0 0 0 0 0 0 0 0 0 0 0 0 0 0 0 0 0 0 0 0 0 0 0 0 0 0 0 0 0
0 0 0 0 0 0 0 0 0 0 0 0 0 0 0 0 0 0 0 0 0 0 0 0 0 0 0 0 0 0 0 0 0 0 0 0 0 0 0 0 0 0 0 0
0 0 0 0 0 0 0 0 0 0 0 0 0 0 0 0 0 0 0 0 0 0 0 0 0 0 0 0 0 0 0 0 0 0 0 0 0 0 0 0 0 0 0 0
0 0 0 0 0 0 0 0 0 0 0 0 0 0 0 0 0 0 0 0 0 0 0 0 0 0 0 0 0 0 0 0 0 0 0 0 0 0 0 0 0 0 0 0
0 0 0 0 0 0 0 0 0 0 0 0 0 0 0 0 0 0 0 0 0 0 0 0 0 0 0 0 0 0 0 0 0 0 0 0 0 0 0 0 0 0 0 0
0 0 0 0 0 0 0 0 0 0 0 0 0 0 0 0 0 0 0 0 0 0 0 0 0 0 0 0 0 0 0 0 0 0 0 0 0 0 0 0 0 0 0 0
0 0 0 0 0 0 0 0 0 0 0 0 0 0 0 0 0 0 0 0 0 0 0 0 0 0 0 0 0 0 0 0 0 0 0 0 0 0 0 0 0 0 0 0
0 0 0 0 0 0 0 0 0 0 0 0 0 0 0 0 0 0 0 0 0 0 0 0 0 0 0 0 0 0 0 0 0 0 0 0 0 0 0 0 0 0 0 0
0 0 0 0 0 0 0 0 0 0 0 0 0 0 0 0 0 0 0 0 0 0 0 0 0 0 0 0 0 0 0 0 0 0 0 0 0 0 0 0 0 0 0 0
Wind_Speed
3 3 4 3 4 6 5 8 9 8 6 5 3 2 1 2 3 4 4 2 2 2 1 1 2 2 3 3 4 5 5 6 6 6 6 6 6 6 7 7 8 7 7 7
2 2 5 4 3 4 4 5 5 6 3 1 1 2 3 3 4 3 2 2 1 1 1 1 1 2 2 3 4 4 5 6 5 6 6 6 6 6 6 6 6 7 8 8
2 2 4 2 0 3 3 2 6 7 5 4 3 3 3 2 3 3 1 1 1 1 0 1 2 2 3 3 3 4 4 5 5 6 7 7 7 6 7 6 6 6 7 7
4 4 4 4 1 4 6 4 2 3 5 5 5 4 4 3 3 3 3 3 2 1 1 1 1 1 1 2 4 4 4 4 5 5 6 6 6 7 7 6 6 6 7 7
4 4 2 1 1 3 5 2 1 5 6 6 6 5 5 6 5 4 4 3 2 2 1 1 1 0 1 2 3 3 4 3 4 5 6 7 7 7 6 6 6 6 5 7
5 5 5 5 1 1 5 1 1 4 7 6 5 4 1 4 5 5 5 5 4 3 3 3 2 0 2 2 2 3 3 3 3 3 5 6 7 6 5 5 6 5 5 5
4 3 3 2 2 1 5 6 4 5 5 4 3 4 4 4 5 5 5 5 5 4 4 3 2 2 1 1 1 2 1 1 2 3 3 4 4 4 4 5 5 5 5 4
4 4 5 2 1 4 4 3 6 5 4 6 8 7 6 6 6 6 6 6 6 5 5 5 4 2 1 1 2 1 0 1 2 2 2 2 3 3 4 5 5 4 4 3
3 3 1 1 1 0 3 6 5 5 6 9 9 7 6 6 6 5 6 6 6 5 5 6 5 4 3 3 3 2 1 0 1 1 1 1 2 3 3 3 3 3 3 3
3 1 2 3 3 4 6 7 7 7 7 8 9 7 6 5 5 5 5 5 5 6 6 6 6 5 4 4 3 2 1 1 1 2 2 2 1 2 2 3 3 3 3 3
3 3 3 4 5 7 9 10 10 9 8 8 9 7 6 5 5 4 4 4 5 6 6 7 6 6 5 5 3 3 2 2 2 2 2 3 3 3 2 1 1 3 3 3
4 4 4 3 3 7 9 9 9 10 9 7 7 7 7 6 5 5 5 5 6 7 7 7 7 7 7 6 5 4 3 3 2 2 3 3 4 4 8 7 8 7 5 4
3 4 6 6 6 7 9 9 9 9 9 8 7 7 7 6 5 6 6 7 7 7 7 7 8 8 8 7 6 6 5 4 3 3 3 4 4 4 4 6 10 10 9 8
6 8 8 5 6 8 10 11 11 10 9 8 7 7 7 7 7 7 7 6 6 7 7 7 8 9 9 7 7 7 6 6 5 4 4 4 4 4 4 5 5 5 7 9
5 6 8 9 9 9 9 10 11 10 8 8 7 7 7 8 7 6 6 5 6 8 8 8 9 9 8 7 8 7 6 5 5 5 5 5 5 5 5 6 6 5 5 6
9 10 11 11 10 9 9 9 10 9 8 8 7 7 7 7 7 7 7 7 8 8 7 7 8 7 7 7 7 6 6 10 9 6 6 6 6 6 6 6 6 6 6 5
10 9 10 10 9 9 8 8 8 8 7 7 6 6 7 7 8 8 7 7 7 7 6 7 7 7 7 7 7 6 6 7 11 8 7 7 7 7 6 6 7 7 6 7
6 7 8 10 10 10 9 8 8 7 7 6 6 6 7 7 7 6 5 5 7 8 8 7 7 7 8 8 6 5 6 6 7 7 7 7 7 7 7 7 8 8 6 7
9 9 8 8 9 9 8 8 7 7 7 7 7 7 7 6 5 5 5 7 7 7 6 7 8 8 8 8 8 5 6 7 7 7 7 8 8 7 7 7 7 7 6 6
9 9 9 9 9 9 8 8 8 7 7 7 8 8 8 6 6 6 7 7 4 3 3 5 6 6 6 7 9 6 7 7 7 7 7 7 6 6 6 7 7 6 6 6
9 9 10 9 8 8 8 8 8 8 7 7 8 8 7 6 6 6 6 5 5 5 6 7 6 5 5 6 8 6 7 7 7 6 6 6 6 6 6 6 6 6 5 5
8 8 9 8 9 8 7 7 8 8 8 7 8 8 7 7 6 6 6 3 3 5 5 5 5 7 8 8 6 7 7 7 6 5 5 5 5 5 5 6 5 5 5 5
7 7 8 8 9 8 8 7 7 8 8 7 7 7 6 5 4 4 4 4 4 7 6 6 7 10 10 7 6 7 7 7 6 6 5 5 5 5 5 5 5 5 5 5
8 8 8 8 9 10 9 7 7 7 7 7 6 5 5 5 5 4 3 5 7 8 6 7 10 11 10 6 6 6 6 6 6 5 6 5 5 5 5 5 5 4 5 5
8 8 8 9 9 7 7 8 8 8 8 6 6 6 5 4 4 3 4 5 7 8 6 8 10 10 7 6 6 6 6 6 5 5 5 5 5 5 5 4 4 4 4 4
7 6 6 6 6 6 6 6 6 5 5 6 5 4 4 4 5 5 4 6 8 7 6 5 5 6 6 6 6 6 5 5 6 5 5 5 5 5 4 4 5 4 4 4
8 7 6 6 6 5 5 6 6 5 5 5 5 4 4 4 5 5 5 5 5 5 5 4 4 5 5 5 5 5 5 5 4 4 4 4 4 3 3 4 3 3 3 3
Wind_Direction
182 178 146 137 151 154 147 164 165 194 191 220 215 208 166 90 90 92 88 90 122 141 146 156 171 178 170 176 171 171 176 187 199 192 190 187 185 189 190 189 193 190 190 197
81 95 110 87 87 128 122 132 132 131 193 223 104 102 86 81 86 80 76 78 90 102 100 154 196 189 167 175 176 169 185 195 190 185 188 189 186 185 185 188 190 186 191 193
161 182 92 83 133 140 126 126 148 169 193 140 115 99 83 71 83 89 73 61 71 61 136 234 230 215 203 195 180 180 195 195 188 188 192 192 188 184 187 186 184 188 194 193
125 110 155 229 311 118 110 79 93 125 129 135 125 99 65 50 61 49 31 31 26 3 333 267 238 216 183 184 186 188 201 203 193 189 192 189 186 192 192 187 191 197 197 196
114 127 144 227 153 137 124 81 55 130 123 119 120 90 52 35 49 48 32 19 3 344 334 343 358 167 151 178 184 184 197 207 206 198 197 193 196 197 192 187 194 198 195 196
116 129 189 212 238 151 108 124 183 140 139 138 123 108 83 37 45 40 27 18 12 8 21 23 359 29 156 174 183 201 208 212 210 205 203 202 201 195 184 186 195 193 197 199
122 136 233 249 302 115 161 206 162 145 143 130 110 129 119 75 49 35 24 13 11 24 29 15 9 55 109 135 224 245 222 191 194 198 202 200 191 183 179 183 185 189 196 200
131 148 224 311 79 162 189 132 124 117 114 110 109 106 100 82 57 38 28 20 18 26 24 15 21 49 52 350 322 338 95 171 198 196 200 194 175 176 173 176 180 189 190 196
159 185 263 24 90 63 137 122 111 113 116 118 112 106 92 75 61 42 30 22 19 25 28 22 19 27 18 350 351 358 51 169 198 166 158 151 165 174 165 168 174 182 186 197
101 98 81 62 60 72 94 99 101 110 113 109 108 104 91 76 61 46 32 25 21 28 31 23 17 23 17 4 7 33 63 72 127 133 115 103 115 143 157 171 180 184 190 199
110 130 95 61 76 92 93 95 96 93 95 104 107 100 93 80 60 45 36 31 37 38 33 23 19 20 18 17 24 42 53 60 98 110 118 99 80 64 103 89 171 181 187 177
178 179 144 132 115 106 103 101 105 103 93 86 97 99 91 81 65 51 41 38 43 41 36 26 24 23 17 17 29 46 54 54 67 90 100 106 103 81 63 72 69 73 78 104
132 109 109 111 98 99 105 103 100 97 99 94 84 91 91 83 69 59 49 42 41 39 36 30 29 27 20 20 32 45 51 53 60 74 89 97 101 105 95 70 64 61 62 73
115 112 106 104 103 102 104 102 97 91 88 89 89 87 88 83 70 60 49 40 42 46 41 34 34 26 14 22 38 46 49 54 60 60 65 80 86 87 90 93 81 60 50 57
81 99 115 111 103 100 102 104 100 95 90 84 82 83 83 80 72 59 47 44 50 50 41 36 34 22 11 27 42 48 50 51 57 64 64 69 78 84 85 85 84 77 64 51
101 102 108 110 110 108 104 104 104 102 98 92 86 80 81 82 74 62 49 47 53 46 34 35 30 15 19 34 46 50 55 63 65 67 68 68 68 73 78 80 78 73 65 55
117 118 120 121 120 116 110 108 108 108 103 97 93 88 85 80 70 59 49 45 53 48 36 35 27 22 33 41 49 53 55 61 65 66 65 66 68 70 72 75 74 71 62 53
114 124 129 132 129 122 114 109 107 105 103 103 98 91 85 82 77 62 49 49 53 44 31 25 31 38 41 43 50 54 59 60 60 63 63 64 66 68 71 74 75 74 66 58
108 113 113 116 118 116 115 113 111 107 105 103 98 91 85 80 77 69 59 57 51 39 11 12 33 46 46 48 57 57 64 67 65 63 65 65 66 65 68 71 71 70 67 63
103 109 110 110 110 113 114 113 111 105 102 103 99 91 82 72 69 69 66 57 35 6 355 23 38 44 45 52 61 62 66 69 70 67 66 66 67 66 67 70 70 68 65 64
107 108 108 110 106 105 110 114 112 106 100 99 100 98 89 74 63 62 63 50 8 13 33 39 44 44 47 54 60 64 67 69 70 70 70 70 70 67 65 66 67 66 65 63
111 111 109 110 108 102 99 102 105 105 100 96 95 96 91 79 69 62 54 46 15 33 47 45 47 57 62 62 63 66 67 68 68 68 68 68 69 69 65 64 64 62 62 62
108 108 107 110 111 106 96 93 98 102 101 100 99 96 91 82 72 77 59 23 39 56 57 53 58 63 64 63 65 67 68 68 67 66 68 68 68 69 68 65 62 60 59 58
104 102 103 106 104 102 99 95 93 93 94 91 87 91 96 90 68 54 67 58 62 67 63 57 61 63 64 63 66 68 68 68 67 67 67 67 69 69 68 67 63 58 55 53
106 105 107 108 107 108 109 106 95 89 87 82 76 70 69 78 89 77 68 67 69 70 66 59 60 62 64 65 66 67 67 68 70 71 68 68 68 68 66 64 62 58 53 47
103 103 104 105 109 112 111 108 102 98 97 90 74 64 68 73 80 77 72 68 68 70 67 60 58 60 63 64 65 67 68 69 68 66 65 65 66 65 63 61 60 56 51 47
94 95 96 92 88 94 101 105 107 105 103 105 95 74 74 77 79 78 76 73 69 66 64 59 59 63 66 68 68 66 65 66 66 67 67 65 65 65 64 62 58 54 50 46